Simultaneous Nadir Overpasses (SNOs) Predictions

Prediction of SNOs between AQUA and NOAA-19 Satellite Orbit:

Table of predicted SNOs for the next 14.0 days since TLE Epoch: 11/29/2014
Index Date (AQUA) Time (AQUA) Lat,Lon (AQUA) SZA (AQUA ) Date (NOAA-19) Time (NOAA-19) Lat,Lon (NOAA-19) SZA (NOAA-19 ) Distance(km) Time Diff (sec)
1 11/29/2014 20:54:16 -78.97, 22.91 78.87 11/29/2014 20:53:48 -78.97, 22.80 78.84 2.33 28
2 11/29/2014 21:43:35 78.63,-167.58 100.71 11/29/2014 21:44:35 78.62,-167.51 100.69 1.94 60
3 12/02/2014 01:38:32 -79.07, -48.75 78.37 12/02/2014 01:37:29 -79.06, -48.75 78.36 0.27 63
4 12/02/2014 02:27:53 78.82, 120.31 101.32 12/02/2014 02:28:19 78.83, 120.19 101.33 2.83 26
5 12/04/2014 07:12:07 78.88, 48.93 101.72 12/04/2014 07:11:58 78.87, 49.06 101.70 2.97 9
6 12/06/2014 11:56:23 79.05, -23.13 102.24 12/06/2014 11:55:41 79.05, -23.13 102.25 0.37 42
7 12/06/2014 12:45:40 -78.68, 146.63 78.25 12/06/2014 12:46:37 -78.68, 146.74 78.28 2.65 57
8 12/08/2014 16:41:10 80.36,-104.12 104.43 12/08/2014 16:39:57 80.18,-104.98 104.38 25.99 73
9 12/08/2014 17:29:56 -78.89, 74.43 77.72 12/08/2014 17:30:21 -78.90, 74.31 77.71 2.60 25
10 12/10/2014 22:14:08 -78.96, 2.95 77.40 12/10/2014 22:14:00 -78.95, 3.04 77.42 2.27 8
11 12/13/2014 02:58:21 -79.11, -68.97 77.02 12/13/2014 02:57:42 -79.12, -69.06 76.99 2.00 39
